EW0754 Weather Reports


time (UTC)temp
C
wind
direction
speed
KPH
gust
KPH
rain 1hr
cm
rain 24hr
cm
rain mn
cm
humidity
%
barometer
mb
20260502170404 7 330 8.0 22.5 0.00 0.05 0.00 63 1014.4
20260502163903 6 334 11.3 19.3 0.00 0.08 0.00 65 1014.7
20260502163403 6 295 11.3 20.9 0.00 0.10 0.00 66 1014.7
20260502162904 6 352 9.7 22.5 0.00 0.10 0.00 65 1014.7
20260502162404 6 3 16.1 27.4 0.00 0.13 0.00 64 1014.7
20260502161904 6 331 11.3 22.5 0.00 0.13 0.00 64 1014.7
20260502161419 6 354 4.8 19.3 0.00 0.13 0.00 65 1014.7
20260502160921 6 342 8.0 19.3 0.00 0.15 0.00 64 1014.7
20260502160423 6 305 11.3 19.3 0.00 0.15 0.00 64 1014.8
20260502151904 6 332 11.3 19.3 0.00 0.15 0.00 60 1014.8
20260502151404 6 295 9.7 19.3 0.00 0.15 0.00 61 1014.7
20260502150904 6 299 9.7 19.3 0.00 0.15 0.00 61 1014.6
20260502150403 6 326 9.7 16.1 0.00 0.15 0.00 59 1014.6
20260502130404 3 298 9.7 16.1 0.00 0.15 0.00 68 1015.2
20260502123403 3 269 9.7 16.1 0.00 0.15 0.00 70 1015.2
20260502122903 3 285 4.8 11.3 0.00 0.15 0.00 72 1015.2
20260502122403 3 315 8.0 12.9 0.00 0.15 0.00 70 1015.2
20260502121903 3 321 8.0 14.5 0.00 0.15 0.00 73 1015.2
20260502121404 3 310 6.4 12.9 0.00 0.15 0.00 74 1015.1
20260502120904 2 306 8.0 12.9 0.00 0.15 0.00 74 1015.2
20260502120403 2 324 8.0 19.3 0.00 0.15 0.00 73 1015.2
20260502115903 2 339 6.4 19.3 0.00 0.15 0.00 73 1015.2
20260502115403 2 321 8.0 16.1 0.00 0.15 0.00 74 1015.2
20260502114903 2 314 6.4 19.3 0.00 0.15 0.00 74 1015.3
20260502113904 2 320 8.0 12.9 0.00 0.15 0.00 75 1015.2
20260502113403 2 335 4.8 12.9 0.00 0.15 0.00 76 1015.2
20260502112403 1 321 3.2 9.7 0.00 0.15 0.00 78 1015.1
20260502111904 1 310 4.8 11.3 0.00 0.15 0.00 78 1015.1
20260502111403 1 306 3.2 9.7 0.00 0.15 0.00 79 1015.1
20260502110403 1 293 4.8 9.7 0.00 0.15 0.00 79 1015.1
20260502105904 1 310 4.8 9.7 0.00 0.15 0.00 79 1015.1
20260502105404 1 292 4.8 14.5 0.00 0.15 0.00 79 1015.1
20260502104904 1 317 4.8 9.7 0.00 0.15 0.00 80 1015.0
20260502103904 1 300 4.8 9.7 0.00 0.15 0.00 81 1014.9
20260502103404 1 311 4.8 11.3 0.00 0.15 0.00 81 1014.9
20260502102904 1 309 4.8 9.7 0.00 0.15 0.00 81 1014.8
20260502102404 1 320 4.8 4.8 0.00 0.15 0.00 82 1014.8
20260502101404 0 312 6.4 12.9 0.00 0.15 0.00 83 1014.7
20260502100904 0 333 1.6 9.7 0.00 0.15 0.00 83 1014.7
20260502100404 0 311 6.4 11.3 0.00 0.15 0.00 84 1014.7
20260502091404 1 308 3.2 4.8 0.00 0.15 0.00 82 1014.3
20260502071403 2 300 6.4 11.3 0.00 0.15 0.00 80 1013.9
20260502070904 2 317 8.0 11.3 0.00 0.15 0.00 82 1014.0
20260502070403 2 288 4.8 9.7 0.00 0.15 0.00 82 1014.0
20260502065903 2 302 3.2 4.8 0.00 0.15 0.00 81 1014.0
20260502065403 2 310 3.2 4.8 0.00 0.15 0.00 81 1014.0
20260502064903 2 318 3.2 9.7 0.00 0.15 0.00 80 1013.9
20260502063904 2 322 3.2 4.8 0.00 0.15 0.00 80 1013.9
20260502062403 2 334 1.6 4.8 0.00 0.15 0.00 79 1014.0
20260502061903 2 331 1.6 9.7 0.00 0.15 0.00 79 1014.0
20260502061403 2 320 3.2 4.8 0.00 0.15 0.00 79 1014.1
20260502060904 2 321 3.2 4.8 0.00 0.15 0.00 78 1014.0
20260502060404 2 327 3.2 4.8 0.00 0.15 0.00 78 1014.0
20260502055904 2 327 3.2 8.0 0.00 0.15 0.00 78 1014.0
20260502055404 2 332 3.2 4.8 0.00 0.15 0.00 77 1014.0
20260502054904 3 340 3.2 4.8 0.00 0.15 0.00 77 1014.1
20260502054403 3 325 1.6 9.7 0.00 0.15 0.00 77 1014.0
20260502052903 3 350 3.2 12.9 0.00 0.15 0.00 75 1014.1
20260502052404 3 354 6.4 12.9 0.00 0.15 0.00 75 1014.0
20260502051904 3 356 4.8 14.5 0.00 0.15 0.00 75 1013.9
20260502051404 3 2 4.8 12.9 0.00 0.15 0.00 75 1013.7
20260502050904 3 3 8.0 11.3 0.00 0.15 0.00 74 1013.6
20260502050403 3 11 8.0 14.5 0.00 0.15 0.00 75 1013.5
20260502045404 3 3 9.7 22.5 0.00 0.15 0.00 75 1013.6
20260502044904 3 11 8.0 14.5 0.00 0.15 0.00 75 1013.5
20260502044404 4 332 4.8 19.3 0.00 0.15 0.00 74 1013.4
20260502043903 4 330 11.3 19.3 0.00 0.15 0.00 73 1013.4
20260502043403 4 314 6.4 19.3 0.00 0.15 0.00 72 1013.3
20260502042904 5 346 6.4 12.9 0.00 0.15 0.00 70 1013.3
20260502041904 5 326 8.0 20.9 0.00 0.15 0.00 68 1013.2
20260502041403 5 328 4.8 16.1 0.00 0.15 0.00 68 1013.2
20260502040903 5 316 9.7 19.3 0.00 0.15 0.00 68 1013.1
20260502040404 5 319 8.0 16.1 0.00 0.15 0.00 67 1013.1
20260502035904 5 309 9.7 19.3 0.00 0.15 0.15 68 1013.2
20260502035404 5 320 8.0 19.3 0.00 0.15 0.15 69 1013.2
20260502034903 5 313 9.7 12.9 0.00 0.15 0.15 73 1013.1
20260502034404 5 308 8.0 12.9 0.00 0.15 0.15 76 1013.2
20260502033904 5 307 9.7 14.5 0.00 0.15 0.15 76 1013.1
20260502033404 5 301 4.8 12.9 0.00 0.15 0.15 79 1013.1
20260502032904 5 281 4.8 11.3 0.00 0.15 0.15 78 1013.0
20260502032404 5 282 4.8 9.7 0.00 0.15 0.15 78 1013.0
20260502031903 5 283 3.2 8.0 0.00 0.15 0.15 77 1013.1
20260502031403 5 258 3.2 4.8 0.00 0.15 0.15 77 1013.1
20260502030904 5 260 3.2 4.8 0.00 0.15 0.15 77 1013.1
20260502030404 5 262 3.2 4.8 0.00 0.15 0.15 78 1013.1
20260502025903 5 254 3.2 4.8 0.00 0.15 0.15 78 1013.2
20260502024904 5 238 3.2 4.8 0.00 0.15 0.15 77 1013.2
20260502024404 5 273 3.2 8.0 0.00 0.15 0.15 77 1013.3
20260502023903 5 258 3.2 4.8 0.00 0.15 0.15 77 1013.2
20260502022904 5 263 3.2 9.7 0.00 0.15 0.15 77 1013.2
20260502022404 5 294 4.8 8.0 0.00 0.15 0.15 78 1013.3
20260502021904 5 285 3.2 4.8 0.00 0.15 0.15 76 1013.3
20260502021403 5 319 0.0 4.8 0.00 0.15 0.15 76 1013.2
20260502020903 5 359 1.6 4.8 0.00 0.15 0.15 76 1013.3
20260502015904 6 308 8.0 12.9 0.00 0.15 0.15 75 1013.2
20260502015404 6 315 9.7 14.5 0.00 0.15 0.15 76 1013.1
20260502014903 6 311 8.0 11.3 0.00 0.15 0.15 77 1013.1
20260502014403 6 284 4.8 12.9 0.00 0.15 0.15 77 1013.0
20260502013903 6 279 8.0 14.5 0.00 0.15 0.15 77 1013.0
20260502013403 6 280 8.0 12.9 0.00 0.15 0.15 78 1012.9
20260502012904 6 251 1.6 8.0 0.00 0.15 0.15 78 1012.9
20260502012404 6 258 6.4 12.9 0.00 0.15 0.15 77 1012.8
20260502011904 6 265 6.4 14.5 0.00 0.15 0.15 77 1012.7
20260502011404 6 265 4.8 9.7 0.00 0.15 0.15 77 1012.7
20260502010403 6 283 9.7 14.5 0.00 0.15 0.15 77 1012.6
20260502005904 6 270 4.8 9.7 0.00 0.15 0.15 76 1012.5
20260502005404 5 279 1.6 4.8 0.00 0.15 0.15 77 1012.4
20260502004904 5 289 1.6 3.2 0.00 0.15 0.15 77 1012.4
20260502004403 6 291 0.0 0.0 0.00 0.15 0.15 76 1012.3
20260502003903 6 291 0.0 1.6 0.00 0.15 0.15 74 1012.2
20260502003403 6 291 0.0 1.6 0.00 0.15 0.15 73 1012.1
20260502002404 6 292 0.0 0.0 0.00 0.15 0.15 73 1011.9
20260502001903 6 291 0.0 0.0 0.00 0.15 0.15 72 1011.9
20260502000403 7 291 0.0 1.6 0.00 0.15 0.15 70 1011.8
20260501235903 7 287 0.0 1.6 0.00 0.15 0.15 70 1011.8
20260501235403 7 309 1.6 3.2 0.00 0.15 0.15 70 1011.9
20260501234903 7 293 1.6 3.2 0.00 0.15 0.15 71 1011.8
20260501234403 7 302 1.6 3.2 0.00 0.15 0.15 70 1011.7
20260501233904 7 295 1.6 3.2 0.00 0.15 0.15 70 1011.7
20260501233403 7 295 1.6 3.2 0.00 0.15 0.15 70 1011.7
20260501232903 7 299 1.6 3.2 0.00 0.15 0.15 70 1011.8
20260501232403 7 309 3.2 4.8 0.00 0.15 0.15 69 1011.7
20260501231904 7 318 3.2 4.8 0.00 0.15 0.15 70 1011.6
20260501231404 7 294 1.6 4.8 0.00 0.15 0.15 69 1011.6
20260501230403 7 284 1.6 4.8 0.00 0.15 0.15 69 1011.6
20260501225903 7 294 3.2 4.8 0.00 0.15 0.15 70 1011.6
20260501224904 7 291 4.8 4.8 0.00 0.15 0.15 70 1011.6
20260501224404 7 312 1.6 4.8 0.00 0.15 0.15 69 1011.5
20260501223903 7 307 3.2 4.8 0.00 0.15 0.15 69 1011.6
20260501222904 7 289 4.8 8.0 0.00 0.15 0.15 68 1011.5
20260501222404 7 278 1.6 4.8 0.00 0.15 0.15 70 1011.5
20260501221904 7 274 3.2 4.8 0.00 0.15 0.15 71 1011.5
20260501221404 7 289 3.2 4.8 0.00 0.15 0.15 70 1011.5
20260501220904 7 215 1.6 4.8 0.00 0.15 0.15 70 1011.5
20260501220404 7 253 1.6 4.8 0.00 0.15 0.15 71 1011.5
20260501215404 7 210 4.8 4.8 0.00 0.15 0.15 73 1011.5
20260501214904 7 285 4.8 8.0 0.00 0.15 0.15 74 1011.5
20260501214404 7 279 3.2 4.8 0.00 0.15 0.15 72 1011.5
20260501213904 7 248 1.6 4.8 0.00 0.15 0.15 75 1011.5
20260501212904 7 249 3.2 4.8 0.00 0.15 0.15 74 1011.6
20260501212404 7 273 3.2 4.8 0.00 0.15 0.15 76 1011.6
20260501211904 7 204 3.2 4.8 0.00 0.15 0.15 76 1011.4
20260501211404 7 274 3.2 8.0 0.00 0.15 0.15 76 1011.4
20260501210904 7 225 3.2 8.0 0.00 0.15 0.15 76 1011.4
20260501210404 7 258 1.6 4.8 0.00 0.15 0.15 76 1011.5
20260501205904 7 239 3.2 4.8 0.00 0.15 0.15 77 1011.5
20260501205403 7 266 3.2 8.0 0.00 0.15 0.15 78 1011.4
20260501204403 6 247 3.2 8.0 0.00 0.15 0.15 78 1011.3
20260501203403 6 211 3.2 8.0 0.00 0.15 0.15 80 1011.3
20260501202903 6 246 4.8 14.5 0.00 0.15 0.15 78 1011.3
20260501202403 6 209 3.2 9.7 0.00 0.15 0.15 80 1011.3
20260501201904 6 197 3.2 11.3 0.00 0.15 0.15 82 1011.3
20260501200904 6 215 8.0 14.5 0.00 0.15 0.15 80 1011.4
20260501200403 6 213 9.7 14.5 0.00 0.15 0.15 80 1011.4
20260501195904 6 211 9.7 14.5 0.00 0.15 0.15 80 1011.4
20260501195403 6 204 9.7 14.5 0.00 0.15 0.15 81 1011.4
20260501194403 6 191 3.2 9.7 0.00 0.15 0.15 82 1011.6
20260501193904 6 221 3.2 8.0 0.00 0.15 0.15 82 1011.7
20260501193404 6 215 1.6 4.8 0.00 0.15 0.15 81 1011.8
20260501192904 6 218 1.6 4.8 0.03 0.15 0.15 82 1011.8
20260501191904 5 250 1.6 4.8 0.03 0.15 0.15 82 1011.9
20260501190904 5 277 1.6 4.8 0.03 0.15 0.15 82 1012.1
20260501190404 5 289 3.2 4.8 0.03 0.15 0.15 82 1012.2
20260501184904 5 293 1.6 3.2 0.03 0.15 0.15 84 1012.3
20260501184404 5 287 3.2 4.8 0.03 0.15 0.15 83 1012.3
20260501183903 5 291 3.2 4.8 0.03 0.15 0.15 84 1012.4
20260501183404 5 314 4.8 9.7 0.03 0.15 0.15 82 1012.4
20260501182903 5 303 6.4 8.0 0.00 0.13 0.13 82 1012.4
20260501181903 5 281 4.8 9.7 0.03 0.13 0.13 81 1012.4
20260501181404 5 291 4.8 8.0 0.03 0.13 0.13 82 1012.4
20260501180904 5 313 1.6 4.8 0.03 0.13 0.13 84 1012.4
20260501180404 5 11 0.0 4.8 0.03 0.13 0.13 83 1012.4